Location: Windsor
(43.2292°N, 89.3015°W)
Time: 10:46:55
(UTC+00:00)

Tiros 1 - Pass Details

Date: 29 May 2022
Orbit: 629 x 663 km, 48.4° (Epoch: 04 July)

Event Time Altitude Azimuth Distance (km) Brightness Sun altitude
Exits shadow 07:00:44 31° 279° (W) 1,114 8.2 -23.4°
Maximum altitude 07:02:44 57° 344° (NNW) 748 7.6 -23.3°
Drops below altitude 10° 07:07:20 10° 64° (ENE) 2,025 10.3 -23.0°
Sets 07:09:43 0° 68° (ENE) 2,940 11.1 -22.9°
